Location: *
(57.8420°S, 159.8600°W)
Time: 13:08:14
(UTC+00:00)

Cosmos 405 Rocket - Pass Details

Date: 18 May 2021
Orbit: 488 x 553 km, 81.3° (Epoch: 22 June)

Event Time Altitude Azimuth Distance (km) Brightness Sun altitude
Rises 03:46:27 0° 12° (NNE) 2,612 6.4 -10.2°
Reaches altitude 10° 03:48:40 10° 21° (NNE) 1,745 5.4 -10.4°
Maximum altitude 03:52:09 34° 86° (E) 885 3.4 -10.9°
Drops below altitude 10° 03:55:45 10° 151° (SSE) 1,802 5.0 -11.3°
Enters shadow 03:56:02 - 152° (SSE) 1,909 5.1 -11.4°
